Time[GMT],current_speed[cm/s](2m),current_direction[angular_degrees](2m),temperature[C](2m),current_u[cm/s](2m),current_v[cm/s](2m)
2013-06-20 16:00,19.36,295.9,14.49,-17.41,8.46
2013-06-20 17:00,23.76,333.2,14.65,-10.72,21.20
2013-06-20 18:00,19.94,5.1,14.58,1.79,19.86
2013-06-20 19:00,29.92,34.0,14.58,16.72,24.81
2013-06-20 20:00,35.49,37.1,14.93,21.43,28.29
2013-06-20 21:00,33.14,56.8,14.93,27.74,18.13
2013-06-20 22:00,26.40,70.2,14.65,24.84,8.94
2013-06-20 23:00,25.81,97.3,14.68,25.60,-3.26
2013-06-21 00:00,26.40,119.8,14.65,22.91,-13.11
2013-06-21 01:00,24.05,138.1,14.46,16.08,-17.89
2013-06-21 02:00,24.34,137.7,14.39,16.38,-18.01
2013-06-21 03:00,28.16,159.9,14.39,9.70,-26.43
2013-06-21 04:00,28.74,151.4,14.46,13.75,-25.24
2013-06-21 05:00,15.84,183.4,14.55,-0.94,-15.81
2013-06-21 06:00,11.44,148.6,14.58,5.96,-9.76
2013-06-21 07:00,5.57,173.9,14.62,0.59,-5.54
2013-06-21 08:00,4.11,304.0,14.58,-3.40,2.30
2013-06-21 09:00,8.80,352.5,14.55,-1.15,8.72
2013-06-21 10:00,6.45,14.3,14.52,1.59,6.25
2013-06-21 11:00,11.73,84.3,14.55,11.67,1.17
2013-06-21 12:00,17.30,94.1,14.65,17.26,-1.24
2013-06-21 13:00,18.77,114.8,14.74,17.03,-7.89
2013-06-21 14:00,27.57,142.6,14.90,16.74,-21.91
2013-06-21 15:00,21.70,151.4,15.25,10.39,-19.06
2013-06-21 16:00,28.16,140.5,15.34,17.90,-21.73
2013-06-21 17:00,25.52,150.7,15.47,12.48,-22.25
2013-06-21 18:00,17.30,177.8,15.66,0.67,-17.29
2013-06-21 19:00,13.49,209.4,15.85,-6.63,-11.75
2013-06-21 20:00,8.80,266.0,16.04,-8.78,-0.61
2013-06-21 21:00,6.45,286.1,15.97,-6.20,1.79
2013-06-21 22:00,9.09,352.8,15.97,-1.13,9.02
2013-06-21 23:00,9.68,18.2,16.26,3.02,9.20
2013-06-22 00:00,15.54,64.2,16.01,14.00,6.76
2013-06-22 01:00,13.79,91.3,15.47,13.78,-0.31
2013-06-22 02:00,23.76,78.3,15.75,23.26,4.83
2013-06-22 03:00,31.38,79.3,15.88,30.84,5.81
2013-06-22 04:00,40.48,112.0,16.01,37.52,-15.18
2013-06-22 05:00,39.30,122.9,16.23,32.99,-21.37
2013-06-22 06:00,24.34,152.5,16.10,11.25,-21.59
2013-06-22 07:00,25.52,156.0,16.13,10.39,-23.31
2013-06-22 08:00,13.20,177.1,16.26,0.67,-13.18
2013-06-22 09:00,13.79,179.5,16.23,0.11,-13.78
2013-06-22 10:00,8.21,212.6,16.26,-4.42,-6.92
2013-06-22 11:00,2.93,242.1,16.35,-2.59,-1.37
2013-06-22 12:00,3.52,145.1,16.39,2.01,-2.89
2013-06-22 13:00,7.63,178.1,16.48,0.25,-7.62
2013-06-22 14:00,9.39,109.6,16.54,8.84,-3.14
2013-06-22 15:00,12.61,153.2,16.64,5.69,-11.25
2013-06-22 16:00,22.29,152.5,16.54,10.30,-19.77
2013-06-22 17:00,17.89,165.1,16.67,4.59,-17.29
2013-06-22 18:00,15.25,145.8,16.73,8.58,-12.61
2013-06-22 19:00,16.42,100.8,16.86,16.13,-3.07
2013-06-22 20:00,16.72,104.3,16.26,16.20,-4.13
2013-06-22 21:00,9.39,56.5,16.73,7.82,5.18
2013-06-22 22:00,18.77,59.6,16.58,16.20,9.49
2013-06-22 23:00,18.77,55.1,16.54,15.39,10.75
2013-06-23 00:00,22.00,66.7,16.54,20.20,8.71
2013-06-23 01:00,22.58,94.1,16.42,22.53,-1.62
2013-06-23 02:00,26.40,114.8,16.42,23.95,-11.09
2013-06-23 03:00,34.90,125.7,16.45,28.33,-20.39
2013-06-23 04:00,36.37,148.2,16.26,19.14,-30.93
2013-06-23 05:00,34.90,154.2,16.48,15.18,-31.43
2013-06-23 06:00,27.86,155.3,16.70,11.65,-25.31
2013-06-23 07:00,20.24,164.1,16.42,5.55,-19.46
2013-06-23 08:00,18.18,154.9,16.51,7.71,-16.47
2013-06-23 09:00,14.08,188.3,16.48,-2.04,-13.93
2013-06-23 10:00,4.40,221.7,16.35,-2.93,-3.28
2013-06-23 11:00,4.69,351.8,16.23,-0.67,4.64
2013-06-23 12:00,10.27,34.3,16.39,5.79,8.48
2013-06-23 13:00,7.33,332.5,16.45,-3.39,6.50
2013-06-23 14:00,12.61,106.8,16.58,12.08,-3.64
2013-06-23 15:00,12.91,125.7,16.58,10.47,-7.54
2013-06-23 16:00,17.60,147.5,16.54,9.44,-14.85
2013-06-23 17:00,20.53,156.0,16.54,8.36,-18.75
2013-06-23 18:00,25.81,162.3,16.20,7.84,-24.59
2013-06-23 19:00,28.45,162.7,15.91,8.48,-27.16
2013-06-23 20:00,23.46,169.7,16.39,4.20,-23.09
2013-06-23 21:00,13.49,209.8,16.35,-6.70,-11.71
2013-06-23 22:00,11.73,226.3,16.26,-8.48,-8.10
2013-06-23 23:00,12.03,208.4,16.67,-5.71,-10.58
2013-06-24 00:00,0.00,326.5,16.26,-0.00,0.00
2013-06-24 01:00,15.54,204.2,16.29,-6.36,-14.18
2013-06-24 02:00,29.62,223.1,16.32,-20.26,-21.62
2013-06-24 03:00,24.34,204.9,16.16,-10.23,-22.09
2013-06-24 04:00,27.28,225.2,15.94,-19.37,-19.20
2013-06-24 05:00,17.01,221.0,15.69,-11.17,-12.83
2013-06-24 06:00,10.85,221.7,15.72,-7.22,-8.10
2013-06-24 07:00,11.44,179.5,15.66,0.09,-11.44
2013-06-24 08:00,12.91,107.8,15.59,12.29,-3.95
2013-06-24 09:00,9.68,96.9,15.37,9.61,-1.17
2013-06-24 10:00,14.08,86.4,15.47,14.05,0.89
2013-06-24 11:00,13.49,99.7,15.22,13.30,-2.28
2013-06-24 12:00,20.24,108.9,15.15,19.15,-6.55
2013-06-24 13:00,24.34,125.4,15.06,19.84,-14.10
2013-06-24 14:00,23.17,146.5,15.28,12.79,-19.32
2013-06-24 15:00,33.44,173.2,15.41,3.95,-33.20
2013-06-24 16:00,36.66,172.9,15.91,4.56,-36.38
2013-06-24 17:00,50.74,190.8,16.07,-9.50,-49.84
2013-06-24 18:00,47.22,215.1,15.94,-27.12,-38.66
2013-06-24 19:00,48.98,215.8,16.26,-28.62,-39.75
2013-06-24 20:00,45.17,222.1,16.48,-30.27,-33.52
2013-06-24 21:00,32.85,225.6,16.67,-23.47,-22.98
2013-06-24 22:00,28.16,254.4,16.58,-27.12,-7.56
2013-06-24 23:00,13.49,284.3,16.77,-13.07,3.34
2013-06-25 00:00,4.11,104.3,16.80,3.98,-1.01
2013-06-25 01:00,7.04,84.6,14.93,7.01,0.66
2013-06-25 02:00,13.49,97.6,17.31,13.37,-1.79
2013-06-25 03:00,25.52,139.5,17.27,16.59,-19.39
2013-06-25 04:00,30.50,136.3,16.61,21.08,-22.05
2013-06-25 05:00,44.58,147.5,16.86,23.92,-37.62
2013-06-25 06:00,45.17,157.4,16.80,17.36,-41.70
2013-06-25 07:00,43.41,170.4,16.32,7.24,-42.80
2013-06-25 08:00,39.30,171.8,16.26,5.60,-38.90
2013-06-25 09:00,34.61,174.3,16.64,3.46,-34.44
2013-06-25 10:00,28.74,171.5,15.72,4.27,-28.42
2013-06-25 11:00,30.21,180.2,14.93,-0.13,-30.21
2013-06-25 12:00,20.82,207.3,16.16,-9.56,-18.50
2013-06-25 13:00,23.76,225.2,16.80,-16.87,-16.73
2013-06-25 14:00,2.35,198.2,15.50,-0.73,-2.23
2013-06-25 15:00,17.30,207.0,16.70,-7.85,-15.42
2013-06-25 16:00,24.05,229.1,17.24,-18.18,-15.74
2013-06-25 17:00,19.94,200.3,17.18,-6.91,-18.71
2013-06-25 18:00,17.89,176.0,16.77,1.24,-17.85
2013-06-25 19:00,20.53,172.9,17.08,2.55,-20.37
2013-06-25 20:00,21.70,172.9,16.54,2.70,-21.54
2013-06-25 21:00,22.00,161.6,15.94,6.94,-20.87
2013-06-25 22:00,19.06,147.2,17.18,10.33,-16.02
2013-06-25 23:00,18.18,135.2,17.18,12.80,-12.91
2013-06-26 00:00,13.20,148.2,17.08,6.95,-11.22
2013-06-26 01:00,22.58,188.3,16.54,-3.27,-22.35
2013-06-26 02:00,21.70,196.8,16.45,-6.26,-20.78
2013-06-26 03:00,29.62,191.5,16.48,-5.90,-29.03
2013-06-26 04:00,29.62,197.8,16.45,-9.07,-28.20
2013-06-26 05:00,37.25,197.5,16.67,-11.18,-35.53
2013-06-26 06:00,33.14,213.6,17.08,-18.36,-27.59
2013-06-26 07:00,26.10,217.2,17.15,-15.77,-20.80
2013-06-26 08:00,22.58,208.4,17.24,-10.73,-19.87
2013-06-26 09:00,19.06,237.6,17.21,-16.09,-10.23
2013-06-26 10:00,19.65,254.4,17.24,-18.93,-5.27
2013-06-26 11:00,14.96,281.5,17.24,-14.66,2.98
2013-06-26 12:00,11.15,310.3,17.37,-8.50,7.21
2013-06-26 13:00,24.93,336.0,17.43,-10.14,22.78
2013-06-26 14:00,20.82,359.2,17.50,-0.30,20.82
2013-06-26 15:00,16.72,34.7,17.46,9.51,13.75
2013-06-26 16:00,15.25,90.6,17.37,15.25,-0.16
2013-06-26 17:00,27.57,120.5,17.43,23.76,-13.98
2013-06-26 18:00,31.38,145.8,17.27,17.65,-25.95
2013-06-26 19:00,34.02,157.7,17.05,12.89,-31.49
2013-06-26 20:00,39.89,171.5,16.48,5.93,-39.45
2013-06-26 21:00,38.13,175.7,16.13,2.88,-38.02
2013-06-26 22:00,32.56,205.2,16.54,-13.87,-29.46
2013-06-26 23:00,40.48,215.8,16.61,-23.65,-32.85
2013-06-27 00:00,50.45,251.3,16.20,-47.78,-16.20
2013-06-27 01:00,50.74,268.5,16.45,-50.72,-1.33
2013-06-27 02:00,42.24,298.0,16.16,-37.28,19.85
2013-06-27 03:00,41.65,322.6,16.35,-25.27,33.10
2013-06-27 04:00,21.12,343.0,16.35,-6.16,20.20
2013-06-27 05:00,6.45,25.9,16.39,2.82,5.80
2013-06-27 06:00,14.37,108.5,16.26,13.63,-4.56
2013-06-27 07:00,23.17,142.6,16.29,14.07,-18.41
2013-06-27 08:00,36.08,146.1,16.35,20.10,-29.96
2013-06-27 09:00,40.48,158.4,16.48,14.87,-37.64
2013-06-27 10:00,41.36,166.2,16.29,9.88,-40.16
2013-06-27 11:00,39.89,179.5,16.07,0.32,-39.89
2013-06-27 12:00,44.29,194.3,15.78,-10.95,-42.91
2013-06-27 13:00,40.77,214.0,15.75,-22.80,-33.80
2013-06-27 14:00,53.38,244.2,15.75,-48.07,-23.20
2013-06-27 15:00,53.67,249.9,15.31,-50.39,-18.48
2013-06-27 16:00,46.05,261.5,14.87,-45.54,-6.83
2013-06-27 17:00,30.80,263.6,15.12,-30.60,-3.45
2013-06-27 18:00,20.24,278.3,15.28,-20.02,2.94
2013-06-27 19:00,21.70,280.1,15.66,-21.37,3.81
2013-06-27 20:00,7.04,226.0,14.74,-5.06,-4.89
2013-06-27 21:00,13.49,136.3,14.55,9.32,-9.75
2013-06-27 22:00,12.32,137.3,15.15,8.35,-9.06
2013-06-27 23:00,18.48,140.5,15.47,11.75,-14.26
2013-06-28 00:00,14.37,171.8,15.18,2.05,-14.22
2013-06-28 01:00,22.29,174.6,15.22,2.09,-22.19
2013-06-28 02:00,26.98,187.3,15.15,-3.42,-26.77
2013-06-28 03:00,27.57,246.7,15.25,-25.32,-10.91
2013-06-28 04:00,36.66,239.0,15.15,-31.41,-18.90
2013-06-28 05:00,52.50,240.0,15.15,-45.47,-26.24
2013-06-28 06:00,55.73,233.0,15.06,-44.50,-33.55
2013-06-28 07:00,65.70,238.6,14.90,-56.08,-34.22
2013-06-28 08:00,58.66,243.5,14.77,-52.51,-26.14
2013-06-28 09:00,55.14,243.9,14.39,-49.51,-24.27
2013-06-28 10:00,42.24,249.9,14.27,-39.65,-14.54
2013-06-28 11:00,34.90,263.2,14.24,-34.66,-4.12
2013-06-28 12:00,28.45,275.2,14.17,-28.33,2.57
2013-06-28 13:00,17.60,304.0,14.17,-14.59,9.84
2013-06-28 14:00,10.27,336.4,14.02,-4.12,9.40
2013-06-28 15:00,17.89,32.2,13.98,9.54,15.14
2013-06-28 16:00,26.40,33.3,14.05,14.48,22.07
2013-06-28 17:00,24.34,79.0,13.89,23.90,4.65
2013-06-28 18:00,35.20,113.8,14.11,32.20,-14.20
2013-06-28 19:00,36.08,140.9,14.02,22.77,-27.98
2013-06-28 20:00,37.84,163.7,14.58,10.61,-36.32
2013-06-28 21:00,36.37,191.8,14.81,-7.47,-35.59
2013-06-28 22:00,27.57,194.0,14.55,-6.65,-26.76
2013-06-28 23:00,25.22,189.7,14.27,-4.27,-24.86
2013-06-29 00:00,26.69,208.4,14.33,-12.68,-23.48
2013-06-29 01:00,9.09,231.2,14.27,-7.09,-5.69
2013-06-29 02:00,1.76,215.1,14.27,-1.01,-1.44
2013-06-29 03:00,4.99,81.8,14.21,4.94,0.71
2013-06-29 04:00,9.68,291.4,14.17,-9.01,3.52
2013-06-29 05:00,4.69,154.6,14.14,2.01,-4.24
2013-06-29 06:00,8.21,110.3,14.05,7.70,-2.85
2013-06-29 07:00,12.32,160.2,13.98,4.17,-11.59
2013-06-29 08:00,17.89,164.8,13.89,4.70,-17.26
2013-06-29 09:00,34.90,173.2,13.73,4.13,-34.66
2013-06-29 10:00,37.25,179.2,13.54,0.53,-37.25
2013-06-29 11:00,38.13,190.1,13.35,-6.68,-37.54
2013-06-29 12:00,31.38,196.1,13.07,-8.69,-30.16
2013-06-29 13:00,38.72,211.2,12.82,-20.05,-33.12
2013-06-29 14:00,19.94,217.2,13.26,-12.05,-15.89
2013-06-29 15:00,25.22,217.9,12.85,-15.48,-19.91
2013-06-29 16:00,19.65,211.9,13.51,-10.38,-16.69
2013-06-29 17:00,28.16,217.9,13.32,-17.28,-22.23
2013-06-29 18:00,18.48,260.8,13.61,-18.24,-2.97
2013-06-29 19:00,11.15,253.7,13.76,-10.70,-3.12
2013-06-29 20:00,7.33,28.7,13.98,3.52,6.43
2013-06-29 21:00,15.54,91.6,13.73,15.54,-0.45
2013-06-29 22:00,22.88,90.2,13.57,22.88,-0.09
2013-06-29 23:00,29.92,100.8,13.10,29.39,-5.60
2013-06-30 00:00,34.90,108.5,13.29,33.10,-11.09
2013-06-30 01:00,34.02,137.7,13.42,22.90,-25.16
2013-06-30 02:00,27.86,144.7,13.61,16.09,-22.75
2013-06-30 03:00,26.10,147.2,13.70,14.14,-21.94
2013-06-30 04:00,22.88,147.2,13.57,12.39,-19.23
2013-06-30 05:00,21.70,172.2,13.64,2.96,-21.50
2013-06-30 06:00,28.45,186.2,13.67,-3.08,-28.28
2013-06-30 07:00,31.68,197.8,13.76,-9.70,-30.16
2013-06-30 08:00,45.46,204.2,13.61,-18.60,-41.48
2013-06-30 09:00,55.14,209.4,13.48,-27.09,-48.03
2013-06-30 10:00,52.21,218.9,13.42,-32.80,-40.62
2013-06-30 11:00,47.81,222.1,13.51,-32.04,-35.48
2013-06-30 12:00,38.42,230.2,13.64,-29.51,-24.61
2013-06-30 13:00,35.49,231.6,13.61,-27.80,-22.05
2013-06-30 14:00,27.86,236.5,13.76,-23.24,-15.38
2013-06-30 15:00,19.65,247.8,13.80,-18.19,-7.44
2013-06-30 16:00,9.09,250.6,14.05,-8.57,-3.03
2013-06-30 17:00,10.27,215.4,14.27,-5.95,-8.37
2013-06-30 18:00,5.87,203.8,14.30,-2.37,-5.37
2013-06-30 19:00,6.45,218.6,14.49,-4.02,-5.05
2013-06-30 20:00,16.13,157.0,14.36,6.29,-14.85
2013-06-30 21:00,11.15,156.3,14.77,4.47,-10.21
2013-06-30 22:00,19.65,151.8,14.71,9.30,-17.31
2013-06-30 23:00,23.76,163.7,14.55,6.66,-22.80
2013-07-01 00:00,25.22,165.1,14.24,6.47,-24.38
2013-07-01 01:00,25.22,164.1,14.24,6.92,-24.26
2013-07-01 02:00,34.61,165.1,14.36,8.88,-33.45
2013-07-01 03:00,25.22,170.4,14.36,4.21,-24.87
2013-07-01 04:00,27.57,184.1,14.27,-1.98,-27.50
2013-07-01 05:00,27.28,190.8,14.33,-5.11,-26.79
2013-07-01 06:00,26.10,198.2,14.11,-8.14,-24.80
2013-07-01 07:00,35.78,216.1,13.89,-21.09,-28.91
2013-07-01 08:00,24.34,230.5,13.73,-18.79,-15.48
2013-07-01 09:00,19.36,236.5,13.86,-16.14,-10.68
2013-07-01 10:00,17.30,238.3,14.02,-14.72,-9.10
2013-07-01 11:00,21.12,200.3,14.05,-7.32,-19.81
2013-07-01 12:00,25.22,200.3,14.14,-8.75,-23.66
2013-07-01 13:00,28.74,203.1,14.08,-11.28,-26.44
2013-07-01 14:00,31.09,213.6,14.02,-17.23,-25.88
2013-07-01 15:00,22.29,210.8,14.21,-11.43,-19.14
2013-07-01 16:00,19.94,215.8,14.36,-11.65,-16.19
2013-07-01 17:00,18.48,252.7,14.65,-17.64,-5.50
2013-07-01 18:00,13.79,256.9,14.65,-13.43,-3.13
2013-07-01 19:00,12.03,296.3,14.68,-10.78,5.32
2013-07-01 20:00,4.99,265.0,14.62,-4.97,-0.44
2013-07-01 21:00,10.27,156.3,14.77,4.12,-9.40
2013-07-01 22:00,18.18,171.8,14.84,2.59,-18.00
2013-07-01 23:00,34.02,176.0,14.58,2.36,-33.94
2013-07-02 00:00,34.02,182.4,14.87,-1.40,-33.99
2013-07-02 01:00,41.94,199.2,15.22,-13.81,-39.60
2013-07-02 02:00,35.49,196.1,15.37,-9.82,-34.10
2013-07-02 03:00,36.66,209.4,15.34,-18.01,-31.93
2013-07-02 04:00,30.50,228.8,15.18,-22.94,-20.11
2013-07-02 05:00,25.22,231.2,15.03,-19.67,-15.80
2013-07-02 06:00,24.64,235.4,14.90,-20.29,-13.97
2013-07-02 07:00,20.24,244.9,14.99,-18.33,-8.57
2013-07-02 08:00,15.54,259.4,14.96,-15.28,-2.87
2013-07-02 09:00,1.47,257.6,15.06,-1.43,-0.31
2013-07-02 10:00,10.85,89.9,15.25,10.85,0.02
2013-07-02 11:00,12.32,119.4,15.18,10.73,-6.05
2013-07-02 12:00,24.05,130.0,14.96,18.43,-15.45
2013-07-02 13:00,32.26,133.8,14.93,23.27,-22.34
2013-07-02 14:00,42.24,154.9,14.62,17.90,-38.26
2013-07-02 15:00,48.39,168.6,14.62,9.53,-47.45
2013-07-02 16:00,56.02,181.3,14.39,-1.27,-56.01
2013-07-02 17:00,54.85,201.3,14.46,-19.96,-51.09
2013-07-02 18:00,55.73,216.1,14.93,-32.84,-45.02
2013-07-02 19:00,60.13,239.7,15.03,-51.89,-30.37
2013-07-02 20:00,55.14,258.7,15.15,-54.06,-10.85
2013-07-02 21:00,52.79,263.6,14.46,-52.46,-5.91
2013-07-02 22:00,37.84,286.1,13.98,-36.36,10.48
2013-07-02 23:00,29.04,294.2,14.39,-26.49,11.89
2013-07-03 00:00,11.73,308.6,14.36,-9.17,7.32
2013-07-03 01:00,3.81,80.4,14.33,3.76,0.64
2013-07-03 02:00,14.08,132.1,14.24,10.45,-9.43
2013-07-03 03:00,22.00,136.6,14.21,15.10,-15.99
2013-07-03 04:00,36.96,133.5,14.05,26.81,-25.43
2013-07-03 05:00,44.29,145.8,13.92,24.90,-36.62
2013-07-03 06:00,43.41,153.5,13.73,19.35,-38.86
2013-07-03 07:00,46.34,170.8,13.98,7.45,-45.74
2013-07-03 08:00,46.93,180.6,13.95,-0.49,-46.93
2013-07-03 09:00,43.99,204.9,13.98,-18.49,-39.92
2013-07-03 10:00,36.96,228.4,13.86,-27.64,-24.53
2013-07-03 11:00,26.10,244.9,13.92,-23.65,-11.06
2013-07-03 12:00,17.89,233.0,13.95,-14.29,-10.77
2013-07-03 13:00,22.58,227.0,14.02,-16.52,-15.40
2013-07-03 14:00,14.66,197.1,14.02,-4.32,-14.02
2013-07-03 15:00,16.13,186.2,14.14,-1.75,-16.04
2013-07-03 16:00,3.52,222.4,14.43,-2.37,-2.60
2013-07-03 17:00,2.64,143.0,14.49,1.59,-2.11
2013-07-03 18:00,11.15,184.8,14.11,-0.94,-11.11
2013-07-03 19:00,2.93,244.9,14.77,-2.66,-1.24
2013-07-03 20:00,5.28,177.4,14.46,0.24,-5.27
2013-07-03 21:00,11.44,148.6,14.21,5.96,-9.76
2013-07-03 22:00,16.72,176.4,14.58,1.06,-16.68
2013-07-03 23:00,11.44,169.7,15.22,2.05,-11.25
2013-07-04 00:00,14.37,144.7,15.22,8.30,-11.73
2013-07-04 01:00,37.54,179.9,15.03,0.07,-37.54
2013-07-04 02:00,31.09,187.3,14.65,-3.94,-30.84
2013-07-04 03:00,32.56,202.4,14.33,-12.40,-30.10
2013-07-04 04:00,27.86,215.8,14.02,-16.28,-22.61
2013-07-04 05:00,24.34,210.1,14.81,-12.22,-21.05
2013-07-04 06:00,18.18,204.9,15.22,-7.64,-16.50
2013-07-04 07:00,11.44,190.8,15.53,-2.14,-11.24
2013-07-04 08:00,10.27,251.3,14.36,-9.72,-3.30
2013-07-04 09:00,5.57,258.3,14.65,-5.46,-1.13
2013-07-04 10:00,6.75,239.7,14.58,-5.82,-3.41
2013-07-04 11:00,8.21,236.1,14.30,-6.82,-4.57
2013-07-04 12:00,7.04,227.0,14.27,-5.15,-4.80
2013-07-04 13:00,8.51,192.9,14.93,-1.90,-8.29
2013-07-04 14:00,18.18,184.1,15.25,-1.30,-18.14
2013-07-04 15:00,23.46,172.5,14.96,3.06,-23.26
2013-07-04 16:00,28.16,181.3,14.36,-0.64,-28.15
2013-07-04 17:00,29.33,192.2,13.89,-6.20,-28.67
2013-07-04 18:00,35.20,200.3,13.76,-12.20,-33.01
2013-07-04 19:00,26.40,205.2,14.71,-11.24,-23.88
2013-07-04 20:00,18.18,229.1,15.69,-13.75,-11.90
2013-07-04 21:00,12.61,282.6,15.91,-12.31,2.74
2013-07-04 22:00,18.77,11.8,16.67,3.85,18.37
2013-07-04 23:00,11.15,32.6,16.51,6.00,9.39
2013-07-05 00:00,16.72,76.2,16.77,16.23,4.00
2013-07-05 01:00,24.34,109.2,17.21,22.99,-8.01
2013-07-05 02:00,23.17,135.6,17.18,16.21,-16.55
2013-07-05 03:00,27.28,147.2,16.80,14.78,-22.93
2013-07-05 04:00,31.68,159.1,16.16,11.28,-29.60
2013-07-05 05:00,28.74,155.3,15.37,12.02,-26.11
2013-07-05 06:00,24.64,163.7,14.71,6.91,-23.65
2013-07-05 07:00,27.57,202.7,14.84,-10.66,-25.43
2013-07-05 08:00,24.05,217.2,14.77,-14.53,-19.17
2013-07-05 09:00,20.53,234.7,15.88,-16.76,-11.85
2013-07-05 10:00,22.00,286.4,16.96,-21.10,6.22
2013-07-05 11:00,18.77,290.6,15.85,-17.57,6.62
2013-07-05 12:00,13.79,305.1,16.26,-11.28,7.92
2013-07-05 13:00,11.73,318.1,15.53,-7.84,8.73
2013-07-05 14:00,12.61,331.1,15.56,-6.10,11.04
2013-07-05 15:00,11.44,164.4,17.11,3.07,-11.02
2013-07-05 16:00,17.30,171.8,16.92,2.47,-17.13
2013-07-05 17:00,20.24,167.9,16.67,4.23,-19.79
2013-07-05 18:00,22.29,208.0,16.26,-10.47,-19.68
2013-07-05 19:00,21.41,210.1,15.66,-10.75,-18.52
2013-07-05 20:00,14.66,238.6,15.59,-12.52,-7.64
2013-07-05 21:00,13.79,312.1,17.94,-10.23,9.24
2013-07-05 22:00,14.96,319.5,17.75,-9.72,11.37
2013-07-05 23:00,12.91,350.0,17.81,-2.23,12.71
2013-07-06 00:00,14.08,66.0,18.00,12.86,5.73
2013-07-06 01:00,14.96,109.2,17.88,14.12,-4.92
2013-07-06 02:00,21.70,164.4,17.53,5.83,-20.91
2013-07-06 03:00,29.33,175.0,17.62,2.57,-29.22
2013-07-06 04:00,32.56,188.3,17.11,-4.72,-32.21
2013-07-06 05:00,36.37,191.8,17.31,-7.47,-35.59
2013-07-06 06:00,39.30,198.9,17.56,-12.72,-37.19
2013-07-06 07:00,31.09,209.4,17.24,-15.27,-27.08
2013-07-06 08:00,30.50,209.4,17.31,-14.99,-26.57
2013-07-06 09:00,27.57,235.8,16.99,-22.80,-15.50
2013-07-06 10:00,17.01,251.6,16.86,-16.14,-5.36
2013-07-06 11:00,16.72,260.4,16.86,-16.48,-2.79
2013-07-06 12:00,12.61,304.4,16.92,-10.41,7.12
2013-07-06 13:00,7.33,301.2,16.96,-6.27,3.80
2013-07-06 14:00,2.64,150.0,16.96,1.32,-2.29
2013-07-06 15:00,10.56,145.1,17.08,6.04,-8.66
2013-07-06 16:00,17.30,144.7,17.02,9.99,-14.13
2013-07-06 17:00,20.24,166.9,16.80,4.59,-19.71
2013-07-06 18:00,32.26,162.3,17.97,9.80,-30.74
2013-07-06 19:00,29.04,162.7,17.85,8.65,-27.72
2013-07-06 20:00,34.90,165.5,18.16,8.75,-33.79
2013-07-06 21:00,34.32,177.8,17.91,1.33,-34.29
2013-07-06 22:00,30.50,196.8,17.75,-8.80,-29.21
2013-07-06 23:00,24.05,208.7,17.56,-11.56,-21.09
2013-07-07 00:00,18.77,229.8,17.15,-14.34,-12.11
2013-07-07 01:00,19.65,212.6,17.56,-10.59,-16.56
2013-07-07 02:00,17.89,221.4,17.37,-11.83,-13.42
2013-07-07 03:00,20.24,208.0,17.88,-9.51,-17.87
2013-07-07 04:00,21.41,190.4,18.51,-3.88,-21.06
2013-07-07 05:00,26.10,154.6,17.31,11.21,-23.58
2013-07-07 06:00,26.10,174.6,17.34,2.45,-25.99
2013-07-07 07:00,26.10,183.8,17.18,-1.71,-26.05
2013-07-07 08:00,23.76,171.8,16.77,3.39,-23.51
2013-07-07 09:00,18.77,196.1,16.96,-5.19,-18.04
2013-07-07 10:00,25.52,177.8,16.01,0.99,-25.50
2013-07-07 11:00,18.48,192.9,16.96,-4.13,-18.01
2013-07-07 12:00,7.63,224.9,18.23,-5.38,-5.40
2013-07-07 13:00,7.63,206.3,18.48,-3.37,-6.84
2013-07-07 14:00,9.09,184.5,16.96,-0.71,-9.06
2013-07-07 15:00,19.94,173.6,18.32,2.24,-19.82
2013-07-07 16:00,21.70,165.8,18.39,5.31,-21.04
2013-07-07 17:00,27.86,165.5,17.88,6.99,-26.97
2013-07-07 18:00,31.97,182.0,18.39,-1.12,-31.95
2013-07-07 19:00,31.38,194.7,18.13,-7.94,-30.36
2013-07-07 20:00,23.76,223.5,18.36,-16.35,-17.24
2013-07-07 21:00,26.10,258.7,19.73,-25.59,-5.14
2013-07-07 22:00,25.52,263.9,20.02,-25.37,-2.70
2013-07-07 23:00,17.30,295.6,20.18,-15.61,7.47
2013-07-08 00:00,16.42,313.5,19.03,-11.91,11.31
2013-07-08 01:00,13.49,327.6,16.70,-7.24,11.39
2013-07-08 02:00,8.80,23.1,17.31,3.45,8.09
2013-07-08 03:00,14.96,32.6,16.48,8.05,12.61
2013-07-08 04:00,15.54,98.7,16.67,15.37,-2.34
2013-07-08 05:00,26.10,135.9,16.77,18.15,-18.76
2013-07-08 06:00,36.96,154.2,16.80,16.07,-33.28
2013-07-08 07:00,36.66,167.6,15.88,7.88,-35.81
2013-07-08 08:00,40.77,198.2,18.07,-12.72,-38.73
2013-07-08 09:00,32.85,203.8,17.18,-13.26,-30.06
2013-07-08 10:00,29.04,208.4,14.39,-13.80,-25.55
2013-07-08 11:00,42.53,271.7,16.86,-42.51,1.23
2013-07-08 12:00,30.80,292.8,16.83,-28.40,11.91
2013-07-08 13:00,29.62,289.9,17.02,-27.85,10.10
2013-07-08 14:00,22.00,306.8,19.51,-17.61,13.18
2013-07-08 15:00,17.60,281.2,18.51,-17.27,3.40
2013-07-08 16:00,16.42,247.4,19.99,-15.16,-6.31
2013-07-08 17:00,14.96,246.0,19.51,-13.66,-6.09
2013-07-08 18:00,20.53,226.3,19.54,-14.84,-14.18
2013-07-08 19:00,17.01,227.7,19.35,-12.58,-11.45
2013-07-08 20:00,23.17,233.3,19.51,-18.59,-13.84
2013-07-08 21:00,27.57,259.4,18.74,-27.10,-5.09
2013-07-08 22:00,20.53,277.3,17.91,-20.37,2.60
2013-07-08 23:00,26.10,294.5,17.37,-23.75,10.83
2013-07-09 00:00,20.82,309.3,16.89,-16.12,13.18
2013-07-09 01:00,15.84,341.3,16.48,-5.08,15.00
2013-07-09 02:00,3.52,135.2,16.73,2.48,-2.50
2013-07-09 03:00,10.27,112.7,16.99,9.47,-3.97
2013-07-09 04:00,30.80,153.5,17.27,13.73,-27.57
2013-07-09 05:00,35.20,172.9,17.97,4.37,-34.92
2013-07-09 06:00,40.77,184.1,18.23,-2.92,-40.66
2013-07-09 07:00,42.82,187.3,17.78,-5.42,-42.48
2013-07-09 08:00,52.21,224.9,18.61,-36.85,-36.98
2013-07-09 09:00,43.70,235.4,18.48,-35.99,-24.79
2013-07-09 10:00,34.61,255.5,17.56,-33.51,-8.67
2013-07-09 11:00,39.89,284.3,17.59,-38.65,9.86
2013-07-09 12:00,40.18,297.0,17.69,-35.81,18.23
2013-07-09 13:00,38.72,301.5,17.72,-32.99,20.26
2013-07-09 14:00,33.73,314.2,17.69,-24.18,23.52
2013-07-09 15:00,37.54,310.0,17.72,-28.77,24.12
2013-07-09 16:00,22.29,307.5,17.75,-17.68,13.58
2013-07-09 17:00,10.85,326.2,17.78,-6.04,9.01
2013-07-09 18:00,3.52,271.0,17.75,-3.52,0.06
2013-07-09 19:00,12.91,247.0,18.23,-11.88,-5.03
2013-07-09 20:00,14.08,239.0,18.23,-12.06,-7.26
2013-07-09 21:00,12.32,233.7,18.16,-9.93,-7.29
2013-07-09 22:00,16.13,244.6,18.32,-14.57,-6.92
2013-07-09 23:00,15.25,214.7,18.20,-8.68,-12.54
2013-07-10 00:00,13.20,247.8,18.29,-12.22,-5.00
2013-07-10 01:00,16.72,245.3,18.39,-15.19,-6.99
2013-07-10 02:00,19.94,258.3,18.36,-19.53,-4.04
2013-07-10 03:00,23.46,257.9,18.39,-22.95,-4.90
2013-07-10 04:00,22.29,246.3,18.42,-20.42,-8.94
2013-07-10 05:00,21.12,221.7,18.32,-14.06,-15.76
2013-07-10 06:00,23.46,224.5,18.36,-16.46,-16.72
2013-07-10 07:00,22.29,266.7,18.29,-22.25,-1.27
2013-07-10 08:00,18.18,269.2,18.23,-18.18,-0.25
2013-07-10 09:00,10.85,284.7,18.26,-10.50,2.75
2013-07-10 10:00,4.40,292.1,18.16,-4.08,1.65
2013-07-10 11:00,4.11,17.5,18.13,1.23,3.92
2013-07-10 12:00,11.44,3.7,18.16,0.75,11.41
2013-07-10 13:00,6.75,43.5,18.07,4.64,4.90
2013-07-10 14:00,4.99,168.6,18.07,0.98,-4.89
2013-07-10 15:00,12.91,204.2,18.20,-5.28,-11.78
2013-07-10 16:00,16.42,246.3,18.32,-15.04,-6.59
2013-07-10 17:00,14.96,226.7,18.39,-10.88,-10.27
2013-07-10 18:00,12.61,198.5,18.39,-4.01,-11.96
2013-07-10 19:00,12.32,201.0,18.32,-4.41,-11.50
2013-07-10 20:00,14.08,197.1,18.26,-4.14,-13.45
2013-07-10 21:00,10.85,180.6,18.23,-0.11,-10.85
2013-07-10 22:00,7.63,222.4,18.00,-5.15,-5.63
2013-07-10 23:00,4.40,346.5,17.94,-1.03,4.28
2013-07-11 00:00,10.85,356.7,18.29,-0.62,10.83
2013-07-11 01:00,13.79,4.8,18.29,1.15,13.74
2013-07-11 02:00,13.20,61.4,18.39,11.59,6.32
2013-07-11 03:00,13.79,73.4,18.42,13.21,3.95
2013-07-11 04:00,14.66,104.7,18.29,14.19,-3.71